Weather History for KAPN - September, 2013

Change the Weather History Date:

Friday, September 27, 2013

  Actual Average Record
Temperature  
Mean Temperature 55 °F 53 °F  
Max Temperature 74 °F 64 °F 83 °F (1979)
Min Temperature 36 °F 43 °F 25 °F (1989)
Degree Days  
Heating Degree Days 10 12  
Month to date heating degree days 244 203  
Since 1 July heating degree days 355 318  
Cooling Degree Days 0 0  
Month to date cooling degree days 36 21  
Year to date cooling degree days 343 287  
Growing Degree Days 4 (Base 50)    
Moisture  
Dew Point 45 °F    
Average Humidity 67    
Maximum Humidity 100    
Minimum Humidity 33    
Precipitation  
Precipitation 0.00 in 0.09 in 0.91 in (1944)
Month to date precipitation 1.19 2.64  
Year to date precipitation 23.26 21.42  
Sea Level Pressure  
Sea Level Pressure 30.22 in    
Wind  
Wind Speed 4 mph (SE)    
Max Wind Speed 13 mph    
Max Gust Speed 16 mph    
Visibility 9 miles    
Events Fog    
T = Trace of Precipitation, MM = Missing Value Source: NWS Daily Summary

Daily Weather History Graph

Daily Weather History Graph

Search for Another Location

Airport or City:

Trip Planner

Search our weather history database for the weather conditions in past years. The results will help you decide how hot, cold, wet, or windy it might be!

Date:

Astronomy

Sep. 27, 2013 Rise Set
Actual Time 7:27 AM EDT 7:21 PM EDT
Civil Twilight 6:58 AM EDT 7:51 PM EDT
Nautical Twilight 6:24 AM EDT 8:25 PM EDT
Astronomical Twilight 5:49 AM EDT 8:59 PM EDT
Moon 12:07 AM EDT (9/27) 3:13 PM EDT (9/27)
Length of Visible Light 12h 52m
Length of Day
11h 54m
Last Quarter, 45% of the Moon is Illuminated
Sep 27
Last Quarter
Oct 4
New
Oct 11
First Quarter
Oct 18
Full
Oct 26
Last Quarter

Hourly Weather History & Observations

Time (EDT) Temp. Dew Point Humidity Pressure Visibility Wind Dir Wind Speed Gust Speed Precip Events Conditions
12:30 AM 42.8 °F 41.0 °F 93% 30.17 in 0.5 mi Calm Calm - N/A Fog Fog
12:54 AM 42.1 °F 41.0 °F 96% 30.18 in 0.8 mi Calm Calm - N/A   Mist
12:59 AM 41.0 °F 39.2 °F 93% 30.17 in 2.5 mi Calm Calm - N/A   Mostly Cloudy
1:06 AM 41.0 °F 39.2 °F 93% 30.17 in 10.0 mi Calm Calm - N/A   Scattered Clouds
1:54 AM 39.9 °F 39.0 °F 97% 30.19 in 10.0 mi Calm Calm - N/A   Partly Cloudy
2:54 AM 39.9 °F 39.0 °F 97% 30.19 in 10.0 mi Calm Calm - N/A   Clear
3:54 AM 39.0 °F 37.0 °F 93% 30.21 in 10.0 mi Calm Calm - N/A   Clear
4:54 AM 37.9 °F 36.0 °F 93% 30.22 in 10.0 mi Calm Calm - N/A   Clear
5:54 AM 36.0 °F 35.1 °F 97% 30.23 in 10.0 mi Calm Calm - N/A   Clear
6:54 AM 36.0 °F 34.0 °F 93% 30.24 in 9.0 mi Calm Calm - N/A   Clear
7:54 AM 36.0 °F 35.1 °F 97% 30.25 in 10.0 mi Calm Calm - N/A   Clear
8:54 AM 46.0 °F 43.0 °F 89% 30.26 in 10.0 mi Calm Calm - N/A   Clear
9:54 AM 55.0 °F 50.0 °F 83% 30.26 in 10.0 mi Calm Calm - N/A   Clear
10:54 AM 64.9 °F 52.0 °F 63% 30.26 in 10.0 mi Calm Calm - N/A   Clear
11:54 AM 69.1 °F 48.0 °F 47% 30.26 in 10.0 mi South 4.6 mph - N/A   Clear
12:54 PM 73.9 °F 42.1 °F 32% 30.25 in 10.0 mi SSW 8.1 mph - N/A   Clear
1:54 PM 73.9 °F 53.1 °F 48% 30.23 in 10.0 mi ESE 9.2 mph - N/A   Clear
2:54 PM 72.0 °F 55.0 °F 55% 30.22 in 10.0 mi ESE 11.5 mph - N/A   Clear
3:54 PM 72.0 °F 53.1 °F 51% 30.22 in 10.0 mi ESE 9.2 mph - N/A   Clear
4:54 PM 70.0 °F 53.1 °F 55% 30.20 in 10.0 mi East 11.5 mph - N/A   Clear
5:54 PM 69.1 °F 51.1 °F 53% 30.20 in 10.0 mi ESE 10.4 mph - N/A   Clear
6:54 PM 64.9 °F 53.1 °F 65% 30.20 in 10.0 mi ESE 6.9 mph - N/A   Clear
7:54 PM 57.9 °F 51.1 °F 78% 30.20 in 10.0 mi SE 5.8 mph - N/A   Clear
8:54 PM 55.0 °F 50.0 °F 83% 30.21 in 10.0 mi SSE 3.5 mph - N/A   Clear
9:54 PM 52.0 °F 48.9 °F 89% 30.21 in 10.0 mi SSE 4.6 mph - N/A   Clear
10:54 PM 51.1 °F 48.0 °F 89% 30.22 in 10.0 mi SSE 4.6 mph - N/A   Clear
11:54 PM 48.0 °F 46.9 °F 96% 30.22 in 10.0 mi Calm Calm - N/A   Clear